Simultaneous Nadir Overpasses (SNOs) Predictions

Prediction of SNOs between GOES-15 and TERRA Satellite Orbit:

Table of predicted SNOs for the next 14.0 days since TLE Epoch: 1/9/2018
Index Date Time (GOES-15) GOES-15 Lat,Lon TERRA Lat,Lon Distance(km) Time Diff (sec)
1 01/10/2018 07:28:14 0.01,-134.90 0.04,-134.77 15.33 80
2 01/12/2018 07:16:02 0.01,-134.83 0.63,-131.81 343.14 80
3 01/12/2018 19:39:58 -0.00,-134.76 0.44,-136.97 250.89 80
4 01/14/2018 19:25:06 -0.01,-134.67 -0.15,-134.00 76.24 80
5 01/16/2018 19:15:34 -0.01,-134.58 -0.75,-131.04 402.85 80
6 01/17/2018 07:36:57 0.00,-134.61 -0.36,-136.23 184.20 80
7 01/19/2018 07:22:06 0.00,-134.52 0.24,-133.26 141.92 80
8 01/19/2018 19:46:01 0.00,-134.44 0.82,-138.43 452.76 80
9 01/21/2018 07:09:54 -0.00,-134.42 0.85,-130.30 467.58 80
10 01/21/2018 19:33:48 0.01,-134.34 0.27,-135.45 127.25 80




NCC Satellite Simultaneous Nadir Overpasses (SNOs) Prediction Service
